Погода в Морекамбе

Великобритания     54°04′21″N   2°50′45″W
темп.,
°C
ветер,
м/с
пор.,
м/с
влажн.,
%
обл.,
%
осадки,
мм/ч
давл.,
гПа
погр.,
м
23 апреля, пт
пт2301:00+5вюв226215 0.0 102924
04:00+4вюв22665 0.0 102829
07:00+5в22705 0.0 102936
10:00+10ююв12587 0.0 1029417
13:00+13ююв3449100 0.0 1028807
16:00+14ю1345100 0.0 10281009
19:00+12з1163100 0.0 102811
22:00+9вюв2265100 0.0 102913
24 апреля, сб
сб2401:00+8вюв3367100 0.0 102925
04:00+7в2167100 0.0 102917
07:00+7в2271100 0.0 102923
10:00+11в2364100 0.0 1029458
13:00+13вюв45544 0.0 10291029
16:00+15вюв455632 0.0 10281294
19:00+12в6107315 0.0 1029391
22:00+7в511802 0.0 1031388
25 апреля, вс
вс2501:00+4в34915 0.0 103294
04:00+3в22925 0.0 103259
07:00+3в22886 0.0 103296
10:00+8в22675 0.0 1031588
13:00+11св2360100 0.0 1030987
16:00+12всв2460100 0.0 10291178
19:00+11всв367199 0.0 1029298
22:00+5в35843 0.0 1029107
26 апреля, пн
пн2601:00+4в228798 0.0 102840
04:00+3вюв1187100 0.0 102735
07:00+4юв1183100 0.0 102669
10:00+8зюз1174100 0.0 1025400
13:00+9зсз3273100 0.0 1023552
16:00+9зсз3374100 0.0 1021394
19:00+8зюз237998 0.0 1018201
22:00+7зюз2386100 0.0 1017101
27 апреля, вт
вт2701:00+7ю3492100 0.6 1014172
04:00+7зюз249374 1.2 1012246
07:00+6ссз129010 1.3 101096
10:00+7ссв348597 0.3 1011710
13:00+9ссв568078 0.6 1010850
16:00+8всв6883100 0.3 10111063
19:00+6всв71189100 0.4 10141024
22:00+5св61087100 0.3 1016706